Wind_Speed
6 7 9 9 1 2 9 8 15 13 14 8 12 16 13 16 4 11 18 16 16 12 12 12 11 10 10 10 10 10 10 10 10 11 12 11 12 11 11 12 10 10 9 9 10 10 10 9 7
8 5 6 3 2 5 7 13 14 14 19 20 21 21 13 5 11 22 21 19 16 13 8 12 11 11 10 10 10 11 11 11 11 11 11 10 10 11 11 11 9 10 10 10 10 9 9 8 7
15 14 4 2 4 7 5 6 13 24 24 15 10 13 11 10 21 13 20 20 16 12 6 11 12 11 13 11 11 10 11 11 10 9 9 9 10 12 9 11 10 10 9 9 8 6 6 5 4
7 14 3 3 17 13 6 13 23 21 19 10 21 13 11 9 12 15 22 19 15 16 8 12 12 11 10 10 10 10 9 9 9 9 10 9 8 10 7 10 9 9 8 6 5 4 5 4 3
6 9 3 6 18 15 8 22 19 18 17 15 15 12 11 18 19 24 20 19 16 10 8 12 12 10 11 10 11 11 9 10 9 9 9 8 8 8 8 8 7 6 5 4 2 2 2 2 1
15 1 5 3 20 23 21 25 22 8 19 19 16 18 9 19 26 25 20 12 18 11 5 12 11 10 11 10 11 10 10 9 9 9 9 8 7 9 9 8 7 6 4 2 2 2 2 3 4
8 3 7 13 13 11 20 22 21 15 19 15 23 7 13 27 26 15 22 12 18 7 6 7 10 10 10 10 10 9 9 9 8 9 12 13 10 8 8 8 7 6 6 6 6 6 6 7 6
10 4 15 9 10 3 18 15 17 18 15 20 20 9 16 28 23 17 23 16 13 15 9 8 13 11 9 9 10 11 11 11 10 10 8 9 5 5 4 6 15 11 9 10 10 11 10 8 6
12 4 7 7 9 8 19 20 13 17 23 18 13 17 29 31 22 24 18 14 11 14 11 9 10 6 6 7 13 14 12 10 7 5 11 7 9 4 4 9 13 15 11 14 15 11 10 9 6
5 7 12 9 15 15 17 18 14 16 18 11 18 29 35 30 28 25 20 16 16 14 11 14 9 13 7 8 9 9 9 8 8 9 13 12 12 13 15 16 10 10 13 9 10 5 8 12 6
5 4 11 13 14 10 18 13 15 17 11 21 21 31 36 31 27 23 22 20 16 12 16 17 11 13 12 5 8 5 3 5 10 12 6 11 13 16 19 13 11 11 7 6 12 12 5 13 14
6 10 15 12 11 10 14 9 24 26 2 23 23 30 32 29 28 27 21 17 17 16 18 13 11 10 13 9 8 3 4 9 9 9 13 15 9 8 14 11 18 14 7 6 12 7 6 7 5
2 5 8 8 15 12 11 11 20 20 16 23 25 28 29 27 23 23 22 18 18 17 15 16 16 10 13 7 7 5 6 7 7 10 9 11 9 5 4 12 7 15 12 6 6 5 5 8 4
13 20 9 14 11 6 13 9 10 11 18 21 25 26 26 27 25 24 20 21 19 18 17 13 14 15 16 10 11 7 14 6 8 9 8 12 10 16 17 15 9 11 11 16 17 13 12 15 11
21 17 8 11 12 10 10 9 7 13 18 20 24 26 27 26 25 22 23 18 20 17 16 14 14 14 10 8 17 11 9 4 3 8 11 11 8 1 8 9 5 10 10 9 16 13 14 8 12
15 25 8 9 10 11 13 4 18 12 19 21 23 27 29 28 25 21 25 19 18 19 19 15 14 13 11 13 13 6 5 7 5 3 5 7 9 10 7 11 12 12 13 8 11 8 13 16 11
20 8 15 7 17 10 11 15 10 15 19 22 24 28 26 28 28 28 24 24 20 19 21 20 18 14 11 13 16 8 8 10 4 0 3 6 10 10 8 11 11 11 13 12 11 7 10 15 14
5 9 6 13 8 18 14 14 14 23 25 25 25 30 29 28 23 27 26 24 24 20 21 22 16 16 14 13 11 9 7 5 4 2 5 1 5 7 9 10 11 10 9 13 16 13 13 15 18
7 8 11 21 18 22 6 19 24 28 26 28 26 28 34 31 27 26 26 24 22 23 21 24 20 19 15 11 14 10 9 6 5 4 8 2 5 6 9 5 9 7 8 12 17 13 9 11 17
15 7 25 19 14 12 6 18 27 25 27 31 33 31 34 32 34 30 28 27 25 27 25 26 24 18 18 15 14 10 11 10 7 5 5 3 2 5 4 2 4 6 4 10 13 13 12 12 12
20 22 27 22 20 15 9 11 24 26 27 30 28 30 30 35 41 35 35 31 29 28 26 27 26 23 22 14 14 15 15 11 13 8 2 2 2 5 6 3 7 5 8 7 10 13 11 10 12
22 24 25 16 11 12 13 9 3 22 23 24 31 31 33 33 34 35 34 32 32 30 29 26 29 26 22 21 15 16 16 10 6 5 8 2 6 9 1 8 6 7 5 7 7 11 6 8 7
22 24 19 17 10 14 12 9 13 23 23 23 27 35 34 36 36 36 34 34 34 29 29 28 27 28 23 26 18 16 16 11 8 8 9 6 7 7 4 8 13 6 3 8 10 11 9 7 5
22 25 23 15 12 14 18 15 13 12 15 22 25 33 36 35 36 38 35 38 36 32 30 30 30 30 28 24 24 21 16 17 12 11 7 2 7 8 6 13 14 10 6 6 11 9 11 10 11
23 22 14 13 14 13 18 16 6 16 6 16 22 31 34 36 36 40 39 43 38 37 35 33 33 31 31 29 26 26 23 20 18 13 11 6 4 4 11 14 17 7 9 9 8 10 10 12 12
26 23 15 17 15 16 7 10 1 21 24 51 42 33 33 34 35 37 40 40 40 36 36 35 35 33 32 32 29 25 27 24 21 19 15 8 6 5 10 15 13 9 10 8 6 6 11 12 11
25 21 23 25 21 6 8 6 9 21 20 18 26 34 34 34 35 36 36 38 38 38 37 36 35 34 32 32 30 29 27 25 23 16 11 13 16 15 11 16 8 12 13 6 4 6 12 12 10
29 18 20 17 23 11 3 4 13 11 16 17 16 31 36 35 34 36 36 37 36 36 36 36 34 35 31 29 31 30 29 26 23 19 20 15 11 11 16 9 12 16 11 7 5 7 13 12 8
19 21 20 22 17 14 12 6 10 16 20 17 14 34 38 37 34 35 35 38 37 35 36 37 35 34 32 29 29 29 29 27 25 25 22 20 19 19 18 12 12 14 10 9 7 7 12 11 9
26 26 26 16 19 15 8 5 1 17 24 14 15 36 37 35 33 35 34 37 38 36 37 38 36 35 32 30 30 29 28 25 25 24 22 21 20 17 15 12 13 13 10 11 9 7 11 11 7
Wind_Direction
179 140 158 199 149 257 102 139 121 116 114 119 80 86 96 43 21 111 134 128 125 139 122 120 111 105 102 107 104 105 103 96 92 86 88 89 89 85 84 83 81 82 92 97 99 95 90 90 92
194 174 347 313 224 113 92 111 115 107 115 108 97 103 66 71 97 124 124 126 130 113 124 124 116 113 114 105 107 105 108 102 99 98 95 90 84 88 85 87 84 84 89 99 101 94 86 87 92
188 256 97 324 274 111 134 139 134 117 132 112 92 73 79 112 122 118 135 136 138 137 149 126 117 112 105 102 114 111 104 100 103 100 97 96 98 92 83 89 87 86 93 104 106 97 86 76 71
178 7 70 204 92 92 153 152 120 143 113 105 115 90 101 132 112 135 141 127 125 131 146 130 123 116 112 112 121 112 107 107 105 103 108 102 96 89 85 84 86 85 84 91 104 92 106 89 67
98 28 42 300 111 129 183 122 132 136 115 137 111 109 110 130 118 132 131 133 134 158 138 129 120 119 115 109 117 112 103 103 104 110 104 89 86 89 79 76 77 81 81 84 83 92 92 91 50
100 354 248 274 115 128 136 140 134 173 138 115 114 117 128 149 140 130 134 142 143 145 141 130 125 122 124 116 120 114 108 103 100 98 90 80 78 70 72 70 59 56 47 21 325 332 334 344 336
144 190 264 95 61 66 133 138 132 144 131 140 133 110 139 156 152 153 157 124 153 141 107 123 131 129 125 121 118 116 110 98 92 94 94 85 76 75 72 71 47 36 14 355 347 341 342 354 348
293 16 321 36 91 355 102 108 122 133 138 146 146 146 165 162 151 162 151 115 151 140 156 131 112 85 111 118 111 103 96 88 85 103 78 83 51 50 82 35 28 19 23 12 360 357 357 351 342
241 14 262 121 113 161 152 121 130 137 134 150 181 152 156 156 147 151 158 134 142 135 137 132 123 161 117 129 113 106 89 81 57 34 36 30 37 50 75 36 30 36 32 31 31 35 24 358 331
134 157 263 102 128 170 134 107 128 126 135 146 92 131 148 151 156 158 160 170 160 142 144 151 147 153 152 142 114 81 55 74 47 50 28 35 14 38 42 32 19 41 31 27 18 34 0 322 304
39 237 251 102 170 191 119 119 152 144 151 134 133 146 153 153 159 162 163 167 158 162 165 144 160 134 145 162 104 129 174 144 56 82 57 50 31 29 44 28 13 37 25 25 15 20 45 35 38
11 290 79 84 71 114 68 140 94 80 2 133 140 152 156 158 160 165 163 175 164 161 156 158 157 148 170 143 169 152 157 50 110 38 58 45 40 75 40 62 33 55 65 32 23 38 1 345 22
79 298 99 95 85 80 153 115 130 130 136 133 147 155 160 163 165 173 174 170 163 162 149 165 166 164 160 169 180 144 114 79 116 80 50 93 49 31 25 22 46 27 55 57 25 64 30 37 10
176 288 121 137 102 175 117 83 147 127 142 138 156 164 166 171 169 172 175 170 167 161 157 172 165 174 163 154 168 134 100 89 37 52 82 83 58 86 65 46 35 27 35 19 29 20 16 23 19
310 266 166 166 155 148 95 114 75 144 153 153 164 172 171 178 173 171 177 168 166 168 166 173 166 148 162 166 138 124 126 80 67 10 34 72 112 323 78 61 61 39 29 16 3 8 2 18 347
215 242 226 4 339 164 113 44 286 167 161 161 175 174 176 178 177 179 184 179 170 171 175 165 162 164 154 140 133 133 147 127 89 357 1 36 75 23 28 56 61 58 24 20 356 5 357 356 350
251 200 153 222 253 250 148 165 223 203 169 171 180 172 178 175 182 184 182 181 178 169 178 163 171 169 164 182 148 125 168 113 93 83 350 42 18 53 84 65 37 48 43 358 359 35 1 358 356
313 32 346 213 221 219 184 188 190 199 173 173 183 173 177 178 195 178 185 181 183 170 181 165 173 180 187 165 151 156 144 114 148 149 305 89 2 42 24 42 19 28 7 347 10 8 19 18 343
356 15 207 292 264 211 210 172 185 180 178 170 183 187 177 184 191 187 188 182 178 179 181 174 173 187 185 174 162 173 188 178 181 234 280 33 359 17 43 59 5 13 347 345 2 12 11 11 8
155 76 272 237 293 198 210 179 171 180 183 175 177 191 181 183 187 189 189 190 183 188 186 183 187 194 184 176 166 187 211 189 180 176 268 200 322 8 12 51 24 26 20 7 3 355 14 15 12
247 168 242 268 182 252 230 244 153 180 185 173 183 186 195 186 180 183 190 193 188 188 190 195 191 198 187 181 187 199 195 183 208 228 257 148 313 356 341 358 351 41 37 330 356 352 16 43 26
249 209 228 229 258 253 193 248 295 179 183 180 179 187 191 194 187 181 189 194 196 188 195 202 196 200 200 177 196 205 192 197 220 203 184 258 315 344 59 319 329 15 49 330 327 353 30 2 3
250 256 265 252 250 273 222 227 209 222 182 183 184 181 191 193 195 187 192 195 196 193 194 202 208 200 204 185 179 205 185 198 173 184 234 255 271 335 17 305 344 345 23 325 341 353 2 358 356
239 252 258 254 274 249 252 249 246 184 188 178 191 184 184 187 196 185 192 194 194 198 195 201 211 211 201 203 189 189 203 182 191 210 233 322 309 324 303 302 331 354 353 311 320 343 338 356 357
220 238 242 232 237 244 249 249 51 143 38 303 185 187 185 182 189 183 187 188 190 197 195 201 209 215 213 207 206 204 199 203 198 192 214 199 237 251 270 293 314 310 294 309 325 340 346 348 355
229 229 238 230 232 244 26 301 39 124 125 234 256 182 182 186 186 189 186 185 186 193 195 196 208 217 217 213 215 215 213 217 209 214 223 213 238 263 274 283 310 283 289 300 327 329 322 335 346
234 225 235 250 251 195 344 301 187 187 215 227 208 171 178 185 184 187 190 184 187 192 198 197 206 216 220 218 219 221 224 221 224 225 233 233 226 225 263 274 284 276 296 281 307 290 315 330 336
229 231 226 239 251 243 155 319 259 260 261 214 169 169 173 177 181 182 188 184 189 192 198 198 204 216 219 218 218 222 224 225 220 213 221 232 224 242 236 246 256 277 276 274 261 300 304 315 312
212 233 226 239 242 251 202 202 243 276 278 229 176 168 166 173 179 178 184 182 186 191 196 198 200 208 216 216 214 218 224 225 222 222 228 235 238 237 253 266 251 266 260 267 257 268 280 303 317
219 219 234 239 239 259 272 223 93 305 278 227 176 154 161 169 177 175 182 180 182 190 193 195 199 203 215 212 208 217 222 221 223 221 227 238 245 250 257 254 250 254 254 264 262 274 262 294 317
Height
1489 1491 1493 1496 1493 1499 1489 1493 1486 1497 1499 1502 1501 1506 1517 1523 1524 1534 1535 1538 1540 1540 1541 1542 1544 1545 1546 1546 1547 1548 1549 1549 1549 1549 1549 1550 1550 1550 1551 1551 1551 1550 1550 1550 1550 1550 1551 1551 1551
1490 1491 1496 1486 1495 1502 1499 1485 1488 1486 1498 1501 1505 1511 1517 1528 1527 1532 1536 1540 1541 1543 1544 1544 1545 1546 1547 1548 1549 1549 1550 1550 1551 1551 1552 1552 1553 1553 1553 1553 1553 1552 1551 1551 1551 1551 1552 1551 1551
1490 1491 1482 1497 1489 1497 1502 1492 1485 1492 1497 1501 1509 1515 1521 1529 1532 1533 1537 1540 1543 1544 1545 1546 1547 1548 1549 1549 1550 1551 1552 1552 1553 1554 1554 1555 1555 1555 1555 1555 1555 1554 1553 1553 1552 1551 1552 1552 1552
1489 1488 1489 1494 1482 1485 1492 1488 1487 1492 1495 1502 1507 1518 1526 1529 1532 1535 1540 1543 1545 1546 1546 1547 1548 1550 1550 1551 1552 1552 1553 1554 1554 1555 1555 1556 1557 1556 1557 1556 1556 1556 1555 1554 1552 1552 1551 1551 1551
1498 1503 1503 1499 1474 1481 1488 1485 1491 1490 1495 1503 1506 1518 1527 1531 1534 1537 1540 1544 1546 1546 1548 1549 1549 1550 1551 1552 1553 1554 1554 1555 1556 1556 1557 1557 1557 1557 1557 1557 1556 1555 1554 1553 1552 1551 1551 1551 1552
1490 1498 1509 1482 1465 1471 1479 1487 1493 1496 1498 1503 1512 1517 1528 1532 1535 1538 1542 1545 1547 1546 1549 1550 1551 1552 1553 1553 1554 1555 1556 1556 1556 1557 1557 1558 1557 1556 1556 1556 1555 1554 1553 1553 1553 1553 1555 1555 1555
1482 1499 1496 1471 1478 1475 1473 1482 1488 1492 1498 1503 1508 1517 1527 1531 1534 1539 1542 1544 1545 1548 1550 1551 1552 1553 1554 1555 1555 1556 1557 1557 1557 1556 1555 1554 1553 1554 1556 1554 1554 1554 1554 1555 1556 1558 1560 1560 1557
1473 1493 1481 1467 1476 1488 1472 1483 1484 1488 1495 1502 1505 1514 1524 1528 1533 1538 1543 1544 1546 1549 1552 1552 1554 1555 1556 1556 1557 1558 1559 1559 1558 1554 1559 1550 1550 1558 1550 1558 1554 1555 1557 1560 1561 1563 1563 1560 1557
1474 1510 1495 1472 1474 1481 1479 1478 1486 1490 1494 1499 1502 1506 1516 1526 1533 1539 1543 1547 1548 1550 1552 1554 1556 1556 1558 1559 1559 1560 1561 1561 1559 1558 1547 1555 1553 1557 1555 1557 1556 1558 1561 1561 1562 1563 1563 1560 1556
1466 1486 1474 1460 1464 1466 1470 1472 1481 1489 1496 1500 1504 1508 1517 1525 1533 1538 1542 1546 1547 1549 1552 1556 1556 1558 1560 1560 1560 1560 1562 1562 1560 1556 1555 1562 1559 1562 1554 1556 1558 1560 1562 1562 1560 1559 1559 1559 1557
1459 1472 1463 1456 1459 1462 1465 1474 1479 1485 1492 1500 1508 1514 1520 1525 1532 1537 1542 1545 1545 1549 1552 1555 1557 1558 1561 1562 1561 1563 1563 1564 1562 1561 1560 1567 1569 1563 1558 1561 1563 1561 1562 1561 1561 1559 1559 1560 1553
1463 1457 1453 1456 1459 1465 1473 1475 1485 1488 1501 1499 1508 1517 1522 1527 1531 1536 1540 1543 1547 1550 1553 1556 1557 1560 1560 1563 1564 1564 1564 1563 1565 1564 1565 1567 1567 1565 1564 1565 1564 1563 1564 1565 1564 1563 1563 1561 1561
1462 1456 1458 1465 1466 1469 1472 1473 1482 1490 1496 1502 1510 1517 1522 1527 1532 1536 1539 1543 1546 1550 1553 1554 1556 1559 1561 1563 1563 1564 1567 1567 1568 1569 1571 1571 1568 1563 1563 1566 1567 1564 1563 1564 1565 1564 1563 1562 1562
1473 1464 1458 1463 1469 1471 1472 1481 1482 1492 1496 1503 1511 1517 1523 1527 1531 1535 1538 1541 1546 1549 1552 1553 1556 1559 1561 1562 1564 1565 1566 1569 1569 1571 1572 1571 1568 1564 1564 1567 1570 1565 1562 1561 1560 1559 1559 1561 1561
1466 1466 1458 1460 1466 1470 1473 1484 1486 1493 1497 1504 1510 1517 1522 1527 1530 1533 1537 1540 1544 1549 1552 1554 1556 1559 1561 1563 1565 1566 1568 1569 1570 1571 1571 1571 1569 1568 1567 1569 1565 1566 1564 1561 1561 1558 1559 1558 1557
1474 1471 1469 1468 1466 1473 1475 1526 1499 1494 1497 1503 1508 1513 1519 1524 1529 1534 1537 1540 1544 1548 1551 1554 1558 1560 1562 1564 1565 1568 1569 1570 1570 1569 1570 1571 1575 1579 1576 1572 1567 1567 1566 1565 1562 1560 1560 1560 1558
1458 1466 1475 1480 1464 1475 1468 1503 1494 1491 1494 1500 1505 1509 1517 1522 1527 1531 1535 1538 1543 1547 1549 1554 1558 1560 1562 1564 1566 1569 1570 1571 1571 1572 1569 1569 1576 1576 1576 1573 1570 1569 1568 1566 1564 1562 1561 1559 1558
1472 1483 1483 1479 1462 1463 1464 1476 1484 1485 1490 1495 1501 1505 1513 1519 1524 1528 1533 1537 1540 1545 1548 1553 1557 1559 1562 1564 1567 1570 1572 1572 1573 1574 1571 1570 1571 1575 1574 1571 1571 1570 1570 1568 1566 1563 1562 1561 1559
1464 1482 1503 1475 1461 1457 1448 1468 1472 1476 1484 1489 1496 1499 1507 1514 1521 1526 1530 1535 1538 1544 1546 1551 1555 1557 1561 1563 1567 1569 1572 1572 1573 1573 1573 1572 1572 1571 1571 1572 1573 1572 1570 1568 1566 1565 1563 1562 1561
1465 1493 1490 1485 1447 1443 1445 1454 1458 1469 1473 1477 1485 1494 1498 1508 1516 1522 1527 1532 1535 1540 1544 1549 1553 1556 1560 1563 1566 1569 1570 1572 1573 1572 1573 1574 1573 1572 1573 1572 1572 1571 1570 1569 1567 1565 1564 1563 1562
1451 1469 1466 1460 1458 1438 1441 1449 1461 1462 1467 1475 1482 1490 1494 1498 1507 1515 1522 1527 1533 1536 1540 1545 1550 1554 1557 1562 1564 1566 1567 1569 1571 1573 1573 1573 1573 1573 1573 1572 1571 1571 1570 1570 1568 1566 1564 1563 1563
1456 1441 1441 1451 1445 1456 1433 1469 1452 1451 1458 1462 1472 1482 1489 1495 1502 1509 1516 1523 1528 1532 1537 1542 1547 1551 1554 1558 1562 1564 1567 1569 1571 1572 1572 1573 1574 1573 1573 1572 1570 1570 1570 1569 1568 1566 1564 1563 1562
1445 1430 1431 1431 1437 1440 1438 1454 1439 1437 1447 1450 1458 1470 1480 1488 1494 1501 1510 1517 1524 1529 1533 1538 1543 1547 1551 1556 1559 1563 1565 1568 1570 1572 1572 1573 1573 1572 1571 1571 1570 1569 1569 1568 1566 1565 1564 1562 1560
1433 1433 1431 1429 1436 1456 1436 1436 1430 1430 1435 1440 1450 1459 1469 1480 1487 1494 1504 1512 1519 1525 1530 1534 1538 1543 1548 1551 1556 1559 1563 1565 1568 1570 1571 1571 1571 1571 1570 1570 1569 1569 1568 1567 1565 1564 1562 1561 1559
1429 1438 1458 1466 1462 1458 1421 1430 1431 1427 1439 1451 1442 1451 1460 1470 1479 1486 1495 1502 1510 1518 1524 1528 1533 1537 1542 1547 1551 1556 1559 1562 1565 1566 1568 1570 1572 1573 1571 1569 1569 1568 1566 1565 1565 1564 1562 1560 1558
1425 1430 1445 1474 1461 1444 1421 1438 1428 1434 1443 1436 1444 1441 1453 1463 1472 1480 1487 1496 1504 1512 1519 1523 1527 1532 1537 1543 1547 1551 1556 1558 1562 1564 1566 1568 1570 1573 1569 1567 1567 1566 1564 1564 1564 1563 1561 1560 1558
1422 1429 1418 1433 1421 1441 1466 1434 1441 1432 1425 1415 1425 1434 1444 1455 1464 1473 1482 1489 1498 1506 1513 1518 1522 1527 1532 1537 1542 1546 1550 1554 1557 1561 1563 1565 1566 1568 1568 1566 1565 1563 1562 1562 1562 1561 1560 1558 1556
1410 1411 1433 1424 1455 1461 1479 1476 1457 1442 1427 1411 1413 1424 1436 1448 1459 1468 1477 1484 1493 1501 1508 1514 1519 1522 1527 1532 1537 1540 1544 1549 1554 1557 1559 1561 1563 1564 1564 1564 1563 1562 1561 1560 1561 1560 1557 1557 1557
1412 1414 1412 1413 1417 1437 1460 1460 1424 1430 1425 1406 1407 1417 1428 1441 1452 1461 1471 1479 1488 1496 1503 1509 1515 1518 1522 1527 1531 1535 1539 1544 1549 1552 1555 1557 1558 1560 1560 1560 1560 1560 1558 1558 1558 1558 1557 1555 1555
1397 1408 1409 1420 1430 1414 1424 1444 1421 1425 1418 1400 1402 1412 1425 1437 1447 1457 1466 1474 1482 1490 1497 1503 1510 1514 1517 1522 1527 1530 1534 1539 1543 1546 1550 1552 1553 1555 1557 1558 1558 1557 1556 1556 1556 1556 1554 1553 1552